�������l�o���
Date,Time,MP-1(��Sv/h),MP-2(��Sv/h),MP-3(��Sv/h),MP-4(��Sv/h),MP-5(��Sv/h),MP-6(��Sv/h),MP-7(��Sv/h),MP-8(��Sv/h),����,����(m/s),���J
2021/02/19,00:00,0.644,0.939,0.596,1.175,0.827,0.375,0.664,0.624,�k��,3.7,��
2021/02/19,00:10,0.646,0.937,0.594,1.176,0.825,0.373,0.663,0.622,�k��,3.9,��
2021/02/19,00:20,0.644,0.936,0.596,1.174,0.822,0.375,0.663,0.622,�k�k��,5.1,��
2021/02/19,00:30,0.644,0.937,0.597,1.175,0.825,0.375,0.663,0.621,�k�k��,3.2,��
2021/02/19,00:40,0.645,0.937,0.596,1.176,0.824,0.375,0.661,0.623,�k��,3.3,��
2021/02/19,00:50,0.646,0.934,0.595,1.175,0.824,0.373,0.663,0.623,�k��,5.1,��
2021/02/19,01:00,0.645,0.939,0.593,1.174,0.824,0.374,0.662,0.622,�k��,5.2,��
2021/02/19,01:10,0.644,0.937,0.595,1.177,0.824,0.374,0.663,0.623,�k��,4.0,��
2021/02/19,01:20,0.644,0.935,0.595,1.175,0.823,0.375,0.663,0.622,�k��,4.3,��
2021/02/19,01:30,0.646,0.938,0.596,1.176,0.823,0.375,0.662,0.623,���k��,2.9,��
2021/02/19,01:40,0.644,0.937,0.596,1.176,0.824,0.375,0.662,0.623,���k��,2.3,��
2021/02/19,01:50,0.643,0.938,0.596,1.176,0.822,0.373,0.662,0.622,��,2.8,��
2021/02/19,02:00,0.643,0.939,0.596,1.176,0.823,0.374,0.662,0.622,���k��,5.5,��
2021/02/19,02:10,0.645,0.937,0.593,1.175,0.824,0.374,0.661,0.622,���k��,3.4,��
2021/02/19,02:20,0.644,0.937,0.594,1.176,0.823,0.374,0.660,0.624,���k��,6.3,��
2021/02/19,02:30,0.645,0.935,0.595,1.174,0.822,0.373,0.661,0.622,���k��,5.1,��
2021/02/19,02:40,0.646,0.936,0.594,1.176,0.822,0.373,0.662,0.622,���k��,7.5,��
2021/02/19,02:50,0.643,0.937,0.595,1.175,0.822,0.372,0.663,0.622,���k��,5.6,��
2021/02/19,03:00,0.645,0.936,0.593,1.176,0.823,0.374,0.664,0.622,���k��,6.6,��
2021/02/19,03:10,0.643,0.936,0.594,1.173,0.823,0.373,0.662,0.623,���k��,4.4,��
2021/02/19,03:20,0.643,0.936,0.592,1.175,0.823,0.372,0.664,0.623,�k��,3.9,��
2021/02/19,03:30,0.644,0.936,0.592,1.175,0.823,0.375,0.662,0.622,�k��,4.2,��
2021/02/19,03:40,0.644,0.936,0.594,1.174,0.822,0.374,0.663,0.622,���k��,3.9,��
2021/02/19,03:50,0.644,0.935,0.595,1.178,0.823,0.374,0.661,0.622,���k��,3.8,��
2021/02/19,04:00,0.645,0.937,0.596,1.175,0.821,0.373,0.663,0.623,�k��,5.7,��
2021/02/19,04:10,0.646,0.936,0.595,1.176,0.822,0.374,0.663,0.622,���k��,7.1,��
2021/02/19,04:20,0.645,0.935,0.595,1.174,0.823,0.373,0.663,0.622,���k��,8.4,��
2021/02/19,04:30,0.645,0.936,0.594,1.175,0.823,0.375,0.664,0.622,���k��,6.3,��
2021/02/19,04:40,0.644,0.934,0.594,1.177,0.820,0.374,0.662,0.622,���k��,4.8,��
2021/02/19,04:50,0.644,0.936,0.593,1.173,0.821,0.373,0.662,0.621,��,2.8,��
2021/02/19,05:00,0.643,0.937,0.593,1.174,0.822,0.374,0.662,0.622,�k,1.5,��
2021/02/19,05:10,0.646,0.935,0.595,1.173,0.820,0.374,0.662,0.623,�k��,2.6,��
2021/02/19,05:20,0.643,0.935,0.596,1.177,0.821,0.372,0.663,0.622,�k�k��,2.6,��
2021/02/19,05:30,0.642,0.935,0.597,1.174,0.821,0.374,0.662,0.622,�k��,4.6,��
2021/02/19,05:40,0.644,0.936,0.594,1.173,0.821,0.374,0.662,0.622,�k��,6.3,��
2021/02/19,05:50,0.643,0.937,0.595,1.176,0.822,0.373,0.662,0.620,�k��,6.0,��
2021/02/19,06:00,0.644,0.934,0.596,1.174,0.821,0.373,0.661,0.623,�k��,4.0,��
2021/02/19,06:10,0.642,0.935,0.595,1.173,0.822,0.373,0.661,0.623,�k�k��,3.1,��
2021/02/19,06:20,0.643,0.933,0.594,1.173,0.823,0.374,0.663,0.621,�k��,2.9,��
2021/02/19,06:30,0.645,0.933,0.595,1.174,0.821,0.372,0.662,0.621,�k��,2.6,��
2021/02/19,06:40,0.644,0.933,0.592,1.174,0.821,0.374,0.662,0.622,���k��,2.5,��
2021/02/19,06:50,0.644,0.936,0.596,1.175,0.822,0.375,0.662,0.622,���k��,4.0,��
2021/02/19,07:00,0.643,0.933,0.595,1.175,0.822,0.374,0.662,0.622,���k��,3.5,��
2021/02/19,07:10,0.644,0.936,0.595,1.174,0.820,0.374,0.661,0.621,���k��,4.9,��
2021/02/19,07:20,0.645,0.936,0.595,1.173,0.821,0.374,0.661,0.620,�k��,2.9,��
2021/02/19,07:30,0.643,0.936,0.595,1.176,0.820,0.373,0.662,0.622,�k��,3.7,��
2021/02/19,07:40,0.644,0.934,0.595,1.173,0.819,0.374,0.661,0.621,�k��,2.3,��
2021/02/19,07:50,0.644,0.934,0.595,1.174,0.820,0.375,0.663,0.622,�k��,0.9,��
2021/02/19,08:00,0.645,0.934,0.595,1.175,0.822,0.372,0.662,0.622,�k,1.7,��
2021/02/19,08:10,0.643,0.937,0.595,1.177,0.820,0.373,0.661,0.622,�k,2.5,��
2021/02/19,08:20,0.643,0.935,0.596,1.176,0.821,0.372,0.664,0.622,�k�k��,1.5,��
2021/02/19,08:30,0.646,0.935,0.596,1.175,0.821,0.372,0.662,0.623,�k��,1.4,��
2021/02/19,08:40,0.645,0.936,0.596,1.175,0.822,0.371,0.663,0.623,�k�k��,1.4,��
2021/02/19,08:50,0.646,0.937,0.596,1.176,0.820,0.372,0.663,0.623,�k,0.9,��
2021/02/19,09:00,0.645,0.934,0.595,1.174,0.823,0.374,0.664,0.621,��,0.8,��
2021/02/19,09:10,0.645,0.936,0.597,1.177,0.822,0.374,0.664,0.623,�k,1.4,��
2021/02/19,09:20,0.646,0.936,0.596,1.177,0.822,0.374,0.662,0.623,�k��,1.4,��
2021/02/19,09:30,0.645,0.934,0.597,1.173,0.823,0.375,0.663,0.621,���쓌,1.5,��
2021/02/19,09:40,0.646,0.937,0.597,1.177,0.823,0.373,0.661,0.625,���쓌,2.8,��
2021/02/19,09:50,0.645,0.937,0.598,1.175,0.823,0.375,0.662,0.623,���k��,2.9,��
2021/02/19,10:00,0.647,0.936,0.596,1.176,0.825,0.375,0.662,0.623,�k��,2.2,��
2021/02/19,10:10,0.646,0.936,0.596,1.175,0.824,0.374,0.663,0.621,�쐼,1.2,��
2021/02/19,10:20,0.645,0.935,0.597,1.175,0.825,0.376,0.662,0.623,���k��,5.0,��
2021/02/19,10:30,0.649,0.937,0.598,1.176,0.824,0.375,0.663,0.624,���k��,7.1,��
2021/02/19,10:40,0.648,0.937,0.596,1.176,0.825,0.376,0.662,0.624,���k��,9.9,��
2021/02/19,10:50,0.648,0.936,0.597,1.177,0.825,0.376,0.661,0.624,���k��,7.0,��
2021/02/19,11:00,0.648,0.936,0.597,1.175,0.824,0.376,0.663,0.623,���k��,8.6,��
2021/02/19,11:10,0.646,0.937,0.599,1.178,0.826,0.375,0.662,0.623,���k��,9.9,��
2021/02/19,11:20,0.648,0.935,0.599,1.176,0.827,0.376,0.662,0.622,���k��,9.3,��
2021/02/19,11:30,0.649,0.937,0.597,1.177,0.826,0.375,0.663,0.623,���k��,9.2,��
2021/02/19,11:40,0.649,0.938,0.597,1.177,0.825,0.375,0.662,0.625,���k��,9.4,��
2021/02/19,11:50,0.648,0.939,0.597,1.180,0.826,0.375,0.664,0.623,���k��,9.6,��
2021/02/19,12:00,0.649,0.937,0.599,1.179,0.826,0.377,0.663,0.622,���k��,8.7,��
2021/02/19,12:10,0.647,0.938,0.598,1.177,0.827,0.375,0.662,0.623,���k��,11.1,��
2021/02/19,12:20,0.647,0.940,0.600,1.179,0.826,0.375,0.663,0.622,��,8.5,��
2021/02/19,12:30,0.649,0.939,0.597,1.177,0.824,0.377,0.663,0.624,��,13.3,��
2021/02/19,12:40,0.648,0.939,0.600,1.180,0.827,0.376,0.661,0.622,��,10.2,��
2021/02/19,12:50,0.647,0.940,0.598,1.178,0.826,0.377,0.663,0.621,��,13.3,��
2021/02/19,13:00,0.647,0.937,0.596,1.178,0.826,0.376,0.663,0.619,��,13.3,��
2021/02/19,13:10,0.649,0.940,0.600,1.181,0.826,0.377,0.663,0.621,��,16.3,��
2021/02/19,13:20,0.651,0.939,0.599,1.179,0.828,0.377,0.664,0.621,��,14.4,��
2021/02/19,13:30,0.649,0.939,0.598,1.177,0.827,0.377,0.662,0.623,��,15.2,��
2021/02/19,13:40,0.651,0.939,0.598,1.181,0.827,0.378,0.663,0.623,��,13.8,��
2021/02/19,13:50,0.650,0.940,0.600,1.179,0.829,0.378,0.663,0.622,��,12.1,��
2021/02/19,14:00,0.649,0.940,0.599,1.180,0.829,0.377,0.662,0.624,��,12.4,��
2021/02/19,14:10,0.651,0.941,0.598,1.181,0.830,0.379,0.662,0.623,��,12.7,��
2021/02/19,14:20,0.649,0.941,0.598,1.181,0.829,0.378,0.663,0.623,��,11.3,��
2021/02/19,14:30,0.648,0.940,0.598,1.180,0.828,0.377,0.663,0.623,��,11.7,��
2021/02/19,14:40,0.648,0.940,0.599,1.180,0.828,0.378,0.662,0.623,��,12.1,��
2021/02/19,14:50,0.650,0.943,0.598,1.180,0.828,0.378,0.664,0.623,��,9.1,��
2021/02/19,15:00,0.650,0.942,0.599,1.179,0.829,0.379,0.663,0.621,��,8.5,��
2021/02/19,15:10,0.650,0.940,0.600,1.180,0.828,0.378,0.665,0.621,���쐼,8.6,��
2021/02/19,15:20,0.650,0.940,0.599,1.182,0.828,0.379,0.663,0.622,��,12.0,��
2021/02/19,15:30,0.651,0.943,0.599,1.180,0.828,0.377,0.664,0.621,��,12.0,��
2021/02/19,15:40,0.651,0.944,0.598,1.181,0.829,0.377,0.665,0.623,��,11.6,��
2021/02/19,15:50,0.651,0.945,0.600,1.182,0.830,0.378,0.664,0.622,��,10.6,��
2021/02/19,16:00,0.650,0.945,0.600,1.182,0.828,0.379,0.665,0.623,���쐼,10.5,��
2021/02/19,16:10,0.649,0.943,0.598,1.182,0.828,0.379,0.665,0.622,��,9.8,��
2021/02/19,16:20,0.649,0.942,0.599,1.183,0.829,0.378,0.663,0.623,��,10.7,��
2021/02/19,16:30,0.650,0.942,0.598,1.182,0.829,0.377,0.664,0.624,��,10.5,��
2021/02/19,16:40,0.648,0.943,0.597,1.182,0.828,0.377,0.665,0.623,��,8.3,��
2021/02/19,16:50,0.648,0.943,0.598,1.183,0.829,0.378,0.667,0.622,��,8.3,��
2021/02/19,17:00,0.650,0.943,0.599,1.182,0.831,0.377,0.666,0.624,��,9.6,��
2021/02/19,17:10,0.648,0.944,0.599,1.184,0.830,0.379,0.664,0.621,��,8.4,��
2021/02/19,17:20,0.651,0.943,0.599,1.180,0.830,0.379,0.665,0.623,��,10.0,��
2021/02/19,17:30,0.649,0.942,0.600,1.182,0.830,0.378,0.665,0.622,��,10.5,��
2021/02/19,17:40,0.648,0.941,0.600,1.182,0.829,0.379,0.666,0.623,���k��,9.0,��
2021/02/19,17:50,0.649,0.940,0.599,1.181,0.830,0.377,0.666,0.622,��,9.4,��
2021/02/19,18:00,0.648,0.944,0.598,1.181,0.832,0.378,0.666,0.621,���k��,9.4,��
2021/02/19,18:10,0.649,0.941,0.598,1.182,0.830,0.379,0.665,0.623,��,7.0,��
2021/02/19,18:20,0.651,0.944,0.598,1.182,0.832,0.378,0.666,0.623,��,7.5,��
2021/02/19,18:30,0.649,0.943,0.600,1.182,0.830,0.378,0.664,0.622,��,6.7,��
2021/02/19,18:40,0.649,0.943,0.601,1.181,0.829,0.377,0.664,0.622,��,6.3,��
2021/02/19,18:50,0.650,0.944,0.598,1.181,0.828,0.376,0.665,0.623,��,6.5,��
2021/02/19,19:00,0.650,0.942,0.599,1.182,0.831,0.378,0.664,0.623,��,7.3,��
2021/02/19,19:10,0.649,0.942,0.601,1.183,0.829,0.376,0.665,0.622,��,6.6,��
2021/02/19,19:20,0.649,0.942,0.598,1.182,0.830,0.377,0.664,0.623,��,6.8,��
2021/02/19,19:30,0.649,0.944,0.602,1.181,0.829,0.377,0.664,0.622,��,6.4,��
2021/02/19,19:40,0.649,0.943,0.598,1.182,0.830,0.376,0.663,0.622,���쐼,6.9,��
2021/02/19,19:50,0.647,0.941,0.600,1.182,0.829,0.376,0.663,0.622,��,8.1,��
2021/02/19,20:00,0.649,0.942,0.597,1.181,0.830,0.376,0.664,0.622,��,8.1,��
2021/02/19,20:10,0.649,0.944,0.599,1.181,0.830,0.377,0.665,0.623,��,6.4,��
2021/02/19,20:20,0.649,0.942,0.598,1.182,0.831,0.378,0.665,0.624,���쐼,5.0,��
2021/02/19,20:30,0.650,0.942,0.599,1.179,0.831,0.377,0.664,0.621,�쐼,2.9,��
2021/02/19,20:40,0.649,0.942,0.598,1.180,0.830,0.377,0.665,0.623,�쐼,3.4,��
2021/02/19,20:50,0.649,0.942,0.599,1.180,0.830,0.377,0.662,0.622,��쐼,2.8,��
2021/02/19,21:00,0.649,0.943,0.600,1.181,0.830,0.376,0.663,0.623,��쐼,2.5,��
2021/02/19,21:10,0.649,0.940,0.598,1.181,0.831,0.376,0.662,0.622,��쐼,2.3,��
2021/02/19,21:20,0.647,0.940,0.599,1.181,0.831,0.377,0.664,0.622,��쐼,2.6,��
2021/02/19,21:30,0.650,0.943,0.599,1.181,0.829,0.376,0.663,0.623,��쐼,2.6,��
2021/02/19,21:40,0.647,0.941,0.599,1.181,0.831,0.375,0.663,0.623,�쐼,2.6,��
2021/02/19,21:50,0.650,0.941,0.599,1.182,0.829,0.378,0.663,0.621,��쐼,2.8,��
2021/02/19,22:00,0.648,0.941,0.598,1.180,0.830,0.377,0.662,0.623,��쐼,2.6,��
2021/02/19,22:10,0.650,0.942,0.597,1.180,0.828,0.376,0.663,0.622,�쐼,3.2,��
2021/02/19,22:20,0.650,0.941,0.598,1.181,0.830,0.376,0.663,0.622,�쐼,3.8,��
2021/02/19,22:30,0.648,0.941,0.599,1.180,0.831,0.377,0.663,0.622,�쐼,4.8,��
2021/02/19,22:40,0.649,0.939,0.598,1.180,0.829,0.377,0.665,0.621,���쐼,4.6,��
2021/02/19,22:50,0.648,0.941,0.596,1.180,0.830,0.376,0.664,0.621,���쐼,3.1,��
2021/02/19,23:00,0.648,0.943,0.598,1.180,0.829,0.376,0.663,0.621,���쐼,4.2,��
2021/02/19,23:10,0.647,0.941,0.597,1.180,0.830,0.377,0.666,0.623,�쐼,2.5,��
2021/02/19,23:20,0.649,0.941,0.598,1.182,0.830,0.377,0.664,0.624,�쐼,2.9,��
2021/02/19,23:30,0.648,0.942,0.599,1.182,0.830,0.376,0.664,0.621,�쐼,1.2,��
2021/02/19,23:40,0.648,0.943,0.597,1.181,0.829,0.377,0.665,0.623,���쐼,0.8,��
2021/02/19,23:50,0.648,0.940,0.599,1.180,0.830,0.376,0.664,0.623,���쐼,0.8,��
